Powrót do katalogu

SL-3 R/B

AktywnyPO
NORAD 5732·ROCKET BODY·🇷🇺 Russia

Wystrzelony Dec 29, 1971 z Plesetsk Cosmodrome

Loading…

Następne Przeloty (najbliższe 24 godziny)

TLE

ŚwieżeSource: Space-Track

Epoka: Sep 14, 2026, 12:55 UTC

1 05732U 71120B   26257.53824869  .00000159  00000-0  88296-4 0  9997
2 05732  81.2487 100.9014 0050584 268.1181  91.4194 14.06443945805262

Śledź SL-3 R/B w czasie rzeczywistym z AllMySat

Download on the App Store